Location: Albuquerque Trailhead
(34.7934°N, 106.3736°W)
Time: 05:27:27
(UTC+00:00)

Cosmos 1271 Rocket - Pass Details

Date: 20 June 2021
Orbit: 498 x 544 km, 81.2° (Epoch: 29 July)

Event Time Altitude Azimuth Distance (km) Brightness Sun altitude
Rises 10:11:32 0° 349° (NNW) 2,594 6.8 -17.2°
Reaches altitude 10° 10:13:39 10° 347° (NNW) 1,709 5.8 -16.9°
Maximum altitude 10:17:22 69° 264° (W) 540 2.5 -16.4°
Enters shadow 10:19:23 26° 186° (S) 1,027 3.8 -16.1°
